Manitowoc, WI

11:12 PM CDT on August 23, 2016 (GMT -0500)
Manitowoc County

Weather History for KMTW - April, 2013

Change the Weather History Date:

Tuesday, April 9, 2013

  Actual Average Record
Temperature  
Mean Temperature 35 °F -  
Max Temperature 37 °F 48 °F 74 °F (1955)
Min Temperature 32 °F 30 °F 11 °F (1989)
Degree Days  
Heating Degree Days 30    
Moisture  
Dew Point 33 °F    
Average Humidity 89    
Maximum Humidity 100    
Minimum Humidity 75    
Precipitation  
Precipitation 0.65 in - - ()
Sea Level Pressure  
Sea Level Pressure 30.04 in    
Wind  
Wind Speed 8 mph (NNE)    
Max Wind Speed 23 mph    
Max Gust Speed 33 mph    
Visibility 5 miles    
Events Thunderstorm    
Averages and records for this station are not official NWS values.
T = Trace of Precipitation, MM = Missing Value Source: NWS Daily Summary

Daily Weather History Graph

Daily Weather History Graph

Search for Another Location

Airport or City:

Trip Planner

Search our weather history database for the weather conditions in past years. The results will help you decide how hot, cold, wet, or windy it might be!

Date:

Astronomy

Apr. 09, 2013 Rise Set
Actual Time 6:17 AM CDT 7:27 PM CDT
Civil Twilight 5:47 AM CDT 7:57 PM CDT
Nautical Twilight 5:11 AM CDT 8:33 PM CDT
Astronomical Twilight 4:34 AM CDT 9:11 PM CDT
Moon 5:40 AM CDT (4/9) 7:03 PM CDT (4/9)
Length of Visible Light 14h 10m
Length of Day
13h 10m
Waning Crescent, 1% of the Moon is Illuminated
Apr 9
Waning Crescent
Apr 10
New
Apr 18
First Quarter
Apr 25
Full
May 2
Last Quarter

Hourly Weather History & Observations

Time (CDT) Temp. Windchill Dew Point Humidity Pressure Visibility Wind Dir Wind Speed Gust Speed Precip Events Conditions
12:15 AM 35.6 °F 29.9 °F 33.8 °F 93% 30.03 in 7.0 mi NNW 6.9 mph - N/A   Overcast
12:35 AM 35.6 °F 29.9 °F 33.8 °F 93% 30.03 in 7.0 mi NNW 6.9 mph - N/A   Overcast
12:55 AM 35.6 °F 31.7 °F 33.8 °F 93% 30.05 in 8.0 mi NNW 4.6 mph - N/A   Overcast
1:15 AM 35.6 °F 30.7 °F 32.0 °F 87% 30.05 in 8.0 mi North 5.8 mph - N/A   Overcast
1:35 AM 35.6 °F - 32.0 °F 87% 30.05 in 7.0 mi North - - N/A   Overcast
1:55 AM 35.6 °F 30.7 °F 32.0 °F 87% 30.04 in 4.0 mi North 5.8 mph - N/A   Overcast
2:15 AM 33.8 °F 28.6 °F 33.8 °F 100% 30.05 in 0.8 mi North 5.8 mph - N/A   Overcast
2:35 AM 33.8 °F 28.6 °F 32.0 °F 93% 30.04 in 1.2 mi North 5.8 mph - N/A   Overcast
2:55 AM 33.8 °F 29.6 °F 32.0 °F 93% 30.04 in 1.8 mi North 4.6 mph - N/A   Overcast
3:15 AM 33.8 °F 28.6 °F 32.0 °F 93% 30.03 in 3.0 mi North 5.8 mph - N/A   Overcast
3:35 AM 33.8 °F 29.6 °F 33.8 °F 100% 30.04 in 3.0 mi NNE 4.6 mph - N/A   Overcast
3:55 AM 35.6 °F 30.7 °F 33.8 °F 93% 30.03 in 2.5 mi NNE 5.8 mph - N/A   Overcast
4:15 AM 35.6 °F - 33.8 °F 93% 30.05 in 3.0 mi Calm Calm - N/A   Overcast
4:35 AM 33.8 °F 29.6 °F 33.8 °F 100% 30.05 in 4.0 mi North 4.6 mph - N/A   Overcast
4:55 AM 35.6 °F - 33.8 °F 93% 30.05 in 2.0 mi Calm Calm - N/A   Overcast
5:15 AM 35.6 °F - 33.8 °F 93% 30.05 in 1.0 mi Calm Calm - N/A   Overcast
5:35 AM 35.6 °F - 33.8 °F 93% 30.06 in 0.8 mi Calm Calm - N/A   Overcast
5:55 AM 35.6 °F 32.8 °F 33.8 °F 93% 30.06 in 0.8 mi NE 3.5 mph - N/A   Overcast
6:15 AM 35.6 °F 31.7 °F 33.8 °F 93% 30.04 in 0.8 mi NNE 4.6 mph - N/A   Overcast
6:35 AM 35.6 °F - 33.8 °F 93% 30.06 in 0.2 mi Calm Calm - N/A   Overcast
6:55 AM 35.6 °F 31.7 °F 33.8 °F 93% 30.04 in 0.2 mi North 4.6 mph - N/A   Overcast
7:15 AM 35.6 °F 31.7 °F 33.8 °F 93% 30.05 in 0.2 mi North 4.6 mph - N/A   Overcast
7:35 AM 35.6 °F 32.8 °F 33.8 °F 93% 30.04 in 0.2 mi NNE 3.5 mph - N/A   Overcast
7:55 AM 35.6 °F 30.7 °F 33.8 °F 93% 30.02 in 0.2 mi North 5.8 mph - N/A   Overcast
8:15 AM 35.6 °F - 35.6 °F 100% 30.05 in 0.8 mi Calm Calm - N/A   Overcast
8:35 AM 37.4 °F 32.8 °F 35.6 °F 93% 30.05 in 2.0 mi NNE 5.8 mph - N/A   Overcast
8:55 AM 37.4 °F 31.4 °F 35.6 °F 93% 30.03 in 2.5 mi NNE 8.1 mph - N/A   Overcast
9:15 AM 37.4 °F 33.8 °F 35.6 °F 93% 30.04 in 4.0 mi NNE 4.6 mph - N/A   Overcast
9:35 AM 37.4 °F 33.8 °F 35.6 °F 93% 30.05 in 4.0 mi North 4.6 mph - N/A   Overcast
9:55 AM 37.4 °F 33.8 °F 35.6 °F 93% 30.05 in 3.0 mi NNE 4.6 mph - 0.02 in   Overcast
10:15 AM 37.4 °F 30.8 °F 33.8 °F 87% 30.02 in 3.0 mi ENE 9.2 mph - 0.03 in   Overcast
10:35 AM 37.4 °F 30.8 °F 35.6 °F 93% 30.01 in 3.0 mi NNE 9.2 mph - 0.05 in   Overcast
10:55 AM 37.4 °F 32.1 °F 35.6 °F 93% 30.01 in 3.0 mi NNE 6.9 mph - 0.05 in   Overcast
11:15 AM 37.4 °F 31.4 °F 35.6 °F 93% 30.00 in 1.5 mi NNE 8.1 mph 16.1 mph N/A   Overcast
11:35 AM 37.4 °F 30.3 °F 33.8 °F 87% 30.01 in 1.2 mi NNE 10.4 mph 17.3 mph N/A   Overcast
11:55 AM 37.4 °F 29.3 °F 35.6 °F 93% 30.00 in 1.0 mi NE 12.7 mph 16.1 mph N/A   Overcast
12:15 PM 37.4 °F 30.3 °F 35.6 °F 93% 29.99 in 1.8 mi NE 10.4 mph - 0.01 in   Overcast
12:55 PM 37.4 °F 28.9 °F 33.8 °F 87% 29.99 in 5.0 mi North 13.8 mph 18.4 mph 0.07 in   Overcast
1:15 PM 37.4 °F 28.9 °F 33.8 °F 87% 29.97 in 5.0 mi NNE 13.8 mph 23.0 mph 0.05 in   Overcast
1:35 PM 35.6 °F 28.0 °F 33.8 °F 93% 29.98 in 4.0 mi North 10.4 mph 19.6 mph 0.08 in   Overcast
1:55 PM 35.6 °F 26.6 °F 33.8 °F 93% 30.01 in 5.0 mi North 13.8 mph 20.7 mph 0.12 in   Overcast
2:15 PM 35.6 °F 27.1 °F 33.8 °F 93% 30.00 in 3.0 mi North 12.7 mph 26.5 mph 0.10 in Thunderstorm Overcast
2:35 PM 35.6 °F 27.5 °F 33.8 °F 93% 30.04 in 3.0 mi North 11.5 mph 18.4 mph 0.20 in Thunderstorm Overcast
2:55 PM 35.6 °F 24.5 °F 33.8 °F 93% 29.91 in 2.0 mi NNE 20.7 mph 33.4 mph 0.33 in   Overcast
3:15 PM 37.4 °F 28.2 °F 33.8 °F 87% 30.01 in 7.0 mi North 16.1 mph 27.6 mph 0.02 in   Overcast
3:35 PM 37.4 °F 29.3 °F 33.8 °F 87% 30.00 in 10.0 mi North 12.7 mph 23.0 mph 0.02 in   Overcast
3:55 PM 37.4 °F 27.8 °F 33.8 °F 87% 30.01 in 10.0 mi NNE 17.3 mph 26.5 mph 0.02 in   Overcast
4:15 PM 37.4 °F 26.4 °F 33.8 °F 87% 30.01 in 9.0 mi NNE 23.0 mph 29.9 mph N/A   Overcast
4:35 PM 37.4 °F 27.8 °F 33.8 °F 87% 30.00 in 10.0 mi NNE 17.3 mph 28.8 mph N/A   Overcast
4:55 PM 37.4 °F 28.2 °F 33.8 °F 87% 30.03 in 10.0 mi NNE 16.1 mph 26.5 mph 0.01 in   Overcast
5:15 PM 37.4 °F 28.9 °F 33.8 °F 87% 30.03 in 10.0 mi NNE 13.8 mph 25.3 mph N/A   Overcast
5:35 PM 37.4 °F 30.3 °F 33.8 °F 87% 30.04 in 10.0 mi NNE 10.4 mph 21.9 mph N/A   Overcast
5:55 PM 37.4 °F 30.8 °F 33.8 °F 87% 30.04 in 9.0 mi NNE 9.2 mph 21.9 mph 0.01 in   Overcast
6:15 PM 37.4 °F 28.2 °F 33.8 °F 87% 30.05 in 10.0 mi NNE 16.1 mph 21.9 mph 0.01 in   Overcast
6:35 PM 37.4 °F 29.3 °F 33.8 °F 87% 30.06 in 10.0 mi NNE 12.7 mph 24.2 mph 0.01 in   Overcast
6:55 PM 35.6 °F 28.0 °F 32.0 °F 87% 30.06 in 10.0 mi NNE 10.4 mph 20.7 mph 0.01 in   Overcast
7:15 PM 35.6 °F 27.1 °F 32.0 °F 87% 30.07 in 10.0 mi NNE 12.7 mph 24.2 mph N/A   Overcast
7:35 PM 35.6 °F 25.9 °F 30.2 °F 81% 30.06 in 10.0 mi NNE 16.1 mph 25.3 mph N/A   Overcast
7:55 PM 35.6 °F 26.2 °F 32.0 °F 87% 30.06 in 10.0 mi North 15.0 mph 23.0 mph N/A   Overcast
8:15 PM 35.6 °F 27.1 °F 30.2 °F 81% 30.08 in 10.0 mi NNE 12.7 mph 24.2 mph N/A   Overcast
8:35 PM 35.6 °F 28.6 °F 30.2 °F 81% 30.08 in 10.0 mi North 9.2 mph 20.7 mph N/A   Overcast
8:55 PM 35.6 °F 27.1 °F 30.2 °F 81% 30.08 in 10.0 mi NNE 12.7 mph 21.9 mph N/A   Overcast
9:15 PM 35.6 °F 27.1 °F 30.2 °F 81% 30.09 in 10.0 mi North 12.7 mph 21.9 mph N/A   Overcast
9:55 PM 35.6 °F 28.0 °F 28.4 °F 75% 30.09 in 10.0 mi NNE 10.4 mph 21.9 mph N/A   Overcast
10:15 PM 33.8 °F 23.9 °F 28.4 °F 81% 30.08 in 10.0 mi NNE 15.0 mph 21.9 mph N/A   Overcast
10:35 PM 33.8 °F 24.8 °F 28.4 °F 81% 30.10 in 10.0 mi NNE 12.7 mph 20.7 mph N/A   Overcast
10:55 PM 33.8 °F 24.8 °F 26.6 °F 75% 30.08 in 10.0 mi NNE 12.7 mph 21.9 mph N/A   Overcast
11:15 PM 33.8 °F 24.3 °F 26.6 °F 75% 30.07 in 10.0 mi NNE 13.8 mph 23.0 mph 0.01 in   Overcast
11:35 PM 33.8 °F 23.5 °F 26.6 °F 75% 30.07 in 10.0 mi NNE 16.1 mph 26.5 mph 0.01 in   Overcast
11:55 PM 32.0 °F 21.6 °F 28.4 °F 87% 30.07 in 10.0 mi NNE 15.0 mph 21.9 mph 0.01 in Thunderstorm Overcast